This is the latest recevied weather packets stored in our database for station/object KC3ULW-13. If no packets are shown the sender has not sent any weather packets the latest 10 day(s).
| Time | Temp. | Humidity | Pressure | Rain* | Wind** | Luminosity | Snow |
|---|---|---|---|---|---|---|---|
| 1777728663 | 5° C | 90% | 1017.9 hPa | 0 mm | - | 103 W/m² | - |
| 1777728360 | 5° C | 91% | 1017.9 hPa | 0 mm | - | 152 W/m² | - |
| 1777728057 | 5° C | 92% | 1018 hPa | 0 mm | - | 118 W/m² | - |
| 1777727754 | 4.44° C | 92% | 1017.9 hPa | 0 mm | - | 143 W/m² | - |
| 1777727451 | 5° C | 93% | 1018.2 hPa | 0 mm | - | 84 W/m² | - |
| 1777727148 | 4.44° C | 93% | 1018 hPa | 0 mm | - | 144 W/m² | - |
| 1777726847 | 4.44° C | 93% | 1018.2 hPa | 0 mm | - | 120 W/m² | - |
| 1777726542 | 4.44° C | 93% | 1017.9 hPa | 0 mm | - | 136 W/m² | - |
| 1777726240 | 3.89° C | 93% | 1018.2 hPa | 0 mm | - | 112 W/m² | - |
| 1777725936 | 4.44° C | 94% | 1018 hPa | 0 mm | - | 116 W/m² | - |
| 1777725634 | 3.89° C | 94% | 1018.2 hPa | 0 mm | - | 112 W/m² | - |
| 1777725332 | 4.44° C | 94% | 1018.4 hPa | 0 mm | - | 107 W/m² | - |
| 1777725028 | 3.89° C | 94% | 1018.1 hPa | 0 mm | - | 92 W/m² | - |
| 1777724725 | 3.89° C | 94% | 1018.2 hPa | 0 mm | - | 83 W/m² | - |
| 1777724422 | 3.89° C | 94% | 1018.6 hPa | 0 mm | - | 63 W/m² | - |
| 1777724119 | 3.89° C | 94% | 1018.5 hPa | 0 mm | - | 35 W/m² | - |
| 1777723817 | 3.89° C | 94% | 1018.3 hPa | 0 mm | - | 19 W/m² | - |
| 1777723513 | 3.89° C | 94% | 1018.3 hPa | 0 mm | - | 15 W/m² | - |
| 1777723210 | 3.89° C | 94% | 1018.5 hPa | 0 mm | - | 15 W/m² | - |
| 1777722909 | 3.89° C | 94% | 1018.5 hPa | 0 mm | - | 24 W/m² | - |
| 1777722604 | 3.89° C | 94% | 1018.5 hPa | 0 mm | - | 33 W/m² | - |
| 1777722301 | 3.89° C | 94% | 1018.4 hPa | 0 mm | - | 36 W/m² | - |
| 1777721997 | 3.89° C | 94% | 1018.2 hPa | 0 mm | - | 63 W/m² | - |
| 1777721695 | 3.33° C | 94% | 1018.1 hPa | 0 mm | - | 51 W/m² | - |
| 1777721394 | 3.33° C | 94% | 1018.4 hPa | 0 mm | - | 38 W/m² | - |
* Rain latest hour (hover to see other rain measurements)
** Current wind speed in m/s (hover to see current wind gust speed)